Weather History for KMHV - September, 2013

Change the Weather History Date:

Monday, September 30, 2013

  Actual Average Record
Temperature  
Mean Temperature 72 °F -  
Max Temperature 80 °F 84 °F 97 °F (1980)
Min Temperature 64 °F 56 °F 39 °F (1982)
Cooling Degree Days 7    
Growing Degree Days 22 (Base 50)    
Moisture  
Dew Point 33 °F    
Average Humidity 24    
Maximum Humidity 34    
Minimum Humidity 16    
Precipitation  
Precipitation 0.00 in - - ()
Sea Level Pressure  
Sea Level Pressure 29.98 in    
Wind  
Wind Speed 20 mph (West)    
Max Wind Speed 33 mph    
Max Gust Speed 45 mph    
Visibility 10 miles    
Events      
Averages and records for this station are not official NWS values.
T = Trace of Precipitation, MM = Missing Value Source: NWS Daily Summary

Daily Weather History Graph

Daily Weather History Graph

Search for Another Location

Airport or City:

Trip Planner

Search our weather history database for the weather conditions in past years. The results will help you decide how hot, cold, wet, or windy it might be!

Date:

Astronomy

Sep. 30, 2013 Rise Set
Actual Time 6:46 AM PDT 6:37 PM PDT
Civil Twilight 6:21 AM PDT 7:02 PM PDT
Nautical Twilight 5:52 AM PDT 7:32 PM PDT
Astronomical Twilight 5:22 AM PDT 8:01 PM PDT
Moon 2:36 AM PDT (9/30) 4:03 PM PDT (9/30)
Length of Visible Light 12h 41m
Length of Day
11h 50m
Waning Crescent, 18% of the Moon is Illuminated
Sep 30
Waning Crescent
Oct 4
New
Oct 11
First Quarter
Oct 18
Full
Oct 26
Last Quarter

Hourly Weather History & Observations

Time (PDT) Temp. Dew Point Humidity Pressure Visibility Wind Dir Wind Speed Gust Speed Precip Events Conditions
12:15 AM 69.8 °F 28.4 °F 21% 30.05 in 10.0 mi WSW 5.8 mph 23.0 mph N/A   Clear
12:35 AM 68.0 °F 28.4 °F 23% 30.04 in 10.0 mi West 12.7 mph 20.7 mph N/A   Clear
12:55 AM 68.0 °F 30.2 °F 24% 30.04 in 10.0 mi West 15.0 mph 24.2 mph N/A   Clear
1:15 AM 68.0 °F 32.0 °F 26% 30.05 in 10.0 mi WSW 9.2 mph 20.7 mph N/A   Clear
1:35 AM 68.0 °F 30.2 °F 24% 30.03 in 10.0 mi West 20.7 mph 24.2 mph N/A   Clear
1:55 AM 68.0 °F 30.2 °F 24% 30.03 in 10.0 mi WSW 20.7 mph - N/A   Clear
2:15 AM 68.0 °F 30.2 °F 24% 30.03 in 10.0 mi West 16.1 mph 23.0 mph N/A   Clear
2:35 AM 68.0 °F 30.2 °F 24% 30.02 in 10.0 mi West 21.9 mph 33.4 mph N/A   Clear
2:55 AM 68.0 °F 32.0 °F 26% 30.02 in 10.0 mi West 20.7 mph 34.5 mph N/A   Clear
3:15 AM 66.2 °F 32.0 °F 28% 30.01 in 10.0 mi West 23.0 mph 29.9 mph N/A   Clear
3:35 AM 66.2 °F 32.0 °F 28% 30.01 in 10.0 mi WSW 19.6 mph 28.8 mph N/A   Clear
3:55 AM 66.2 °F 32.0 °F 28% 30.01 in 10.0 mi West 23.0 mph 27.6 mph N/A   Clear
4:15 AM 66.2 °F 32.0 °F 28% 30.01 in 10.0 mi West 18.4 mph 29.9 mph N/A   Clear
4:35 AM 66.2 °F 32.0 °F 28% 30.01 in 10.0 mi West 17.3 mph 25.3 mph N/A   Clear
4:55 AM 66.2 °F 32.0 °F 28% 30.00 in 10.0 mi West 19.6 mph 29.9 mph N/A   Clear
5:15 AM 64.4 °F 32.0 °F 30% 30.00 in 10.0 mi West 20.7 mph - N/A   Clear
5:35 AM 64.4 °F 33.8 °F 32% 30.00 in 10.0 mi West 21.9 mph 31.1 mph N/A   Clear
5:55 AM 66.2 °F 33.8 °F 30% 30.00 in 10.0 mi West 20.7 mph 27.6 mph N/A   Clear
6:15 AM 66.2 °F 33.8 °F 30% 30.00 in 10.0 mi WSW 23.0 mph 27.6 mph N/A   Clear
6:35 AM 66.2 °F 33.8 °F 30% 30.01 in 10.0 mi West 20.7 mph 26.5 mph N/A   Clear
6:55 AM 64.4 °F 35.6 °F 34% 30.01 in 10.0 mi West 20.7 mph 29.9 mph N/A   Clear
7:15 AM 66.2 °F 35.6 °F 32% 30.01 in 10.0 mi WSW 18.4 mph 26.5 mph N/A   Clear
7:35 AM 66.2 °F 35.6 °F 32% 30.02 in 10.0 mi West 18.4 mph 27.6 mph N/A   Clear
7:55 AM 66.2 °F 35.6 °F 32% 30.02 in 10.0 mi West 18.4 mph 26.5 mph N/A   Clear
8:15 AM 68.0 °F 37.4 °F 33% 30.03 in 10.0 mi West 19.6 mph 33.4 mph N/A   Clear
8:35 AM 69.8 °F 37.4 °F 31% 30.03 in 10.0 mi West 19.6 mph 27.6 mph N/A   Clear
8:55 AM 69.8 °F 37.4 °F 31% 30.03 in 10.0 mi WSW 21.9 mph 28.8 mph N/A   Clear
9:15 AM 71.6 °F 37.4 °F 29% 30.03 in 10.0 mi West 21.9 mph 28.8 mph N/A   Clear
9:35 AM 73.4 °F 35.6 °F 25% 30.03 in 10.0 mi West 24.2 mph 27.6 mph N/A   Clear
9:55 AM 73.4 °F 37.4 °F 27% 30.04 in 10.0 mi West 21.9 mph 26.5 mph N/A   Clear
10:15 AM 75.2 °F 37.4 °F 25% 30.04 in 10.0 mi West 19.6 mph - N/A   Clear
10:35 AM 75.2 °F 37.4 °F 25% 30.03 in 10.0 mi West 19.6 mph 24.2 mph N/A   Clear
10:55 AM 77.0 °F 37.4 °F 24% 30.03 in 10.0 mi WSW 21.9 mph - N/A   Clear
11:15 AM 77.0 °F 37.4 °F 24% 30.02 in 10.0 mi West 24.2 mph 31.1 mph N/A   Clear
11:35 AM 77.0 °F 35.6 °F 22% 30.02 in 10.0 mi West 21.9 mph - N/A   Clear
11:55 AM 77.0 °F 37.4 °F 24% 30.01 in 10.0 mi West 25.3 mph - N/A   Clear
12:15 PM 77.0 °F 37.4 °F 24% 30.01 in 10.0 mi West 28.8 mph 35.7 mph N/A   Clear
12:35 PM 78.8 °F 37.4 °F 23% 30.00 in 10.0 mi West 28.8 mph - N/A   Clear
12:55 PM 78.8 °F 37.4 °F 23% 30.00 in 10.0 mi West 28.8 mph 34.5 mph N/A   Clear
1:15 PM 80.6 °F 35.6 °F 20% 29.98 in 10.0 mi West 29.9 mph - N/A   Clear
1:35 PM 80.6 °F 33.8 °F 18% 29.97 in 9.0 mi West 29.9 mph 35.7 mph N/A   Clear
1:55 PM 80.6 °F 33.8 °F 18% 29.96 in 10.0 mi West 31.1 mph 38.0 mph N/A   Clear
2:15 PM 80.6 °F 32.0 °F 17% 29.96 in 10.0 mi West 31.1 mph 36.8 mph N/A   Clear
2:35 PM 80.6 °F 32.0 °F 17% 29.96 in 10.0 mi West 31.1 mph 40.3 mph N/A   Clear
2:55 PM 80.6 °F 30.2 °F 16% 29.95 in 10.0 mi West 28.8 mph 38.0 mph N/A   Clear
3:15 PM 80.6 °F 30.2 °F 16% 29.94 in 10.0 mi West 28.8 mph 35.7 mph N/A   Clear
3:35 PM 80.6 °F 32.0 °F 17% 29.94 in 10.0 mi West 24.2 mph 34.5 mph N/A   Clear
3:55 PM 80.6 °F 32.0 °F 17% 29.93 in 10.0 mi West 26.5 mph 32.2 mph N/A   Clear
4:15 PM 80.6 °F 30.2 °F 16% 29.92 in 10.0 mi West 28.8 mph 38.0 mph N/A   Clear
4:35 PM 78.8 °F 30.2 °F 17% 29.92 in 10.0 mi West 27.6 mph 40.3 mph N/A   Clear
4:55 PM 77.0 °F 32.0 °F 19% 29.91 in 10.0 mi West 31.1 mph 41.4 mph N/A   Clear
5:15 PM 77.0 °F 30.2 °F 18% 29.91 in 10.0 mi West 21.9 mph 40.3 mph N/A   Clear
5:35 PM 75.2 °F 32.0 °F 21% 29.91 in 10.0 mi West 31.1 mph 38.0 mph N/A   Clear
5:55 PM 75.2 °F 32.0 °F 21% 29.91 in 10.0 mi WSW 27.6 mph 36.8 mph N/A   Clear
6:15 PM 73.4 °F 32.0 °F 22% 29.91 in 10.0 mi WSW 18.4 mph 29.9 mph N/A   Clear
6:35 PM 73.4 °F 32.0 °F 22% 29.89 in 10.0 mi West 33.4 mph 38.0 mph N/A   Clear
6:55 PM 73.4 °F 32.0 °F 22% 29.89 in 5.0 mi WNW 29.9 mph 44.9 mph N/A   Clear
7:15 PM 71.6 °F 32.0 °F 23% 29.89 in 10.0 mi WNW 26.5 mph 40.3 mph N/A   Clear
7:35 PM 73.4 °F 32.0 °F 22% 29.89 in 10.0 mi West 25.3 mph 35.7 mph N/A   Clear
7:55 PM 71.6 °F 30.2 °F 22% 29.90 in 10.0 mi NW 25.3 mph 35.7 mph N/A   Clear
8:15 PM 71.6 °F 30.2 °F 22% 29.90 in 10.0 mi WNW 32.2 mph 39.1 mph N/A   Clear
8:35 PM 71.6 °F 28.4 °F 20% 29.90 in 10.0 mi WNW 31.1 mph 39.1 mph N/A   Clear
8:55 PM 71.6 °F 28.4 °F 20% 29.90 in 10.0 mi WNW 27.6 mph 39.1 mph N/A   Clear
9:15 PM 71.6 °F 30.2 °F 22% 29.91 in 10.0 mi NW 25.3 mph 39.1 mph N/A   Clear
9:35 PM 71.6 °F 26.6 °F 19% 29.92 in 10.0 mi WNW 19.6 mph 25.3 mph N/A   Clear
9:55 PM 69.8 °F 30.2 °F 23% 29.92 in 10.0 mi WNW 24.2 mph 27.6 mph N/A   Clear
10:15 PM 69.8 °F 28.4 °F 21% 29.92 in 10.0 mi WNW 18.4 mph 29.9 mph N/A   Clear
10:35 PM 68.0 °F 32.0 °F 26% 29.92 in 10.0 mi WNW 21.9 mph 26.5 mph N/A   Clear
10:55 PM 68.0 °F 32.0 °F 26% 29.92 in 10.0 mi WNW 18.4 mph 27.6 mph N/A   Clear
11:15 PM 68.0 °F 32.0 °F 26% 29.92 in 10.0 mi West 21.9 mph 27.6 mph N/A   Clear
11:35 PM 68.0 °F 32.0 °F 26% 29.93 in 10.0 mi WNW 18.4 mph 24.2 mph N/A   Clear
11:55 PM 68.0 °F 33.8 °F 28% 29.92 in 10.0 mi West 20.7 mph 26.5 mph N/A   Clear